Printer-friendly version

IAU Minor Planet Center

Minor Planet Center

MPEC 2008-E36 : 2006 QP180

The following Minor Planet Electronic Circular may be linked-to from your own Web pages, but must not otherwise be redistributed electronically.


Read MPEC 2008-E35 Read MPEC 2008-E37


M.P.E.C. 2008-E36                                Issued 2008 Mar. 4, 04:24 UT

     The Minor Planet Electronic Circulars contain information on unusual
         minor planets and routine data on comets.  They are published
   on behalf of Commission 20 of the International Astronomical Union by the
          Minor Planet Center, Smithsonian Astrophysical Observatory,
                          Cambridge, MA 02138, U.S.A.

             Prepared using the Tamkin Foundation Computer Network

                              MPC@CFA.HARVARD.EDU
          URL http://www.cfa.harvard.edu/iau/mpc.html  ISSN 1523-6714

                                  2006 QP180

                           Revision to MPEC 2006-U37

Observations:
     K06QI0P* C2006 08 28.25805 23 06 42.75 -00 17 36.7          22.4   EE036705
     K06QI0P  C2006 08 28.25888 23 06 42.74 -00 17 36.7          23.7   EE036705
     K06QI0P  C2006 09 11.26639 23 04 21.62 -00 32 34.2          21.9   EE036705
     K06QI0P  C2006 09 11.26971 23 04 21.58 -00 32 34.5          22.7   EE036705
     K06QI0P  C2006 09 18.26234 23 03 11.64 -00 40 26.5          21.9   EE036705
     K06QI0P  C2006 09 18.26566 23 03 11.60 -00 40 26.8          23.2   EE036705
     K06QI0P  C2006 09 20.23075 23 02 52.33 -00 42 40.4          22.2   EE036705
     K06QI0P  C2006 09 20.23407 23 02 52.31 -00 42 40.7          23.4   EE036705
     K06QI0P  C2006 09 29.28994 23 01 26.99 -00 52 51.9          21.9   EE036705
     K06QI0P  C2006 09 29.29326 23 01 26.94 -00 52 52.4          23.0   EE036705
     K06QI0P  C2006 10 01.21351 23 01 09.86 -00 54 59.4          22.1   EE036705
     K06QI0P  C2006 10 01.21683 23 01 09.84 -00 54 59.7          22.9   EE036705
     K06QI0P  C2006 10 03.27779 23 00 51.90 -00 57 14.8          22.1   EE036705
     K06QI0P  C2006 10 03.27863 23 00 51.90 -00 57 14.7          23.2   EE036705
     K06QI0P  C2006 10 12.21284 22 59 40.50 -01 06 36.4          22.5   EE036705
     K06QI0P  C2006 10 12.21367 22 59 40.49 -01 06 36.4          23.9   EE036705
     K06QI0P  C2006 10 14.26195 22 59 25.72 -01 08 38.6          22.2   EE036705
     K06QI0P  C2006 10 14.26278 22 59 25.71 -01 08 38.8          23.4   EE036705
     K06QI0P  C2006 10 20.20259 22 58 46.80 -01 14 14.9          22.3   EE036705
     K06QI0P  C2006 10 20.20342 22 58 46.80 -01 14 14.9          23.7   EE036705
     K06QI0P  C2007 10 13.29157 23 24 19.81 +01 15 46.4          22.4   EE036705
     K06QI0P  C2007 10 13.29489 23 24 19.77 +01 15 45.9          23.4   EE036705
     K06QI0P  C2007 10 15.29648 23 24 04.16 +01 13 41.2          22.3   EE036705
     K06QI0P  C2007 10 15.29897 23 24 04.13 +01 13 40.8          23.4   EE036705
     K06QI0P  C2007 10 20.28110 23 23 27.60 +01 08 40.3          22.2   EE036705
     K06QI0P  C2007 10 20.28442 23 23 27.59 +01 08 40.0          23.1   EE036705
     K06QI0P  C2007 11 04.20314 23 22 01.95 +00 55 36.2          22.7   EE036705
     K06QI0P  C2007 11 04.20397 23 22 01.96 +00 55 36.1          24.0   EE036705
     K06QI0P  C2007 11 07.16112 23 21 49.77 +00 53 26.0          22.5   EE036705
     K06QI0P  C2007 11 07.16444 23 21 49.73 +00 53 25.9          23.7   EE036705
     K06QI0P  C2007 11 09.20262 23 21 42.35 +00 52 01.8          22.4   EE036705
     K06QI0P  C2007 11 09.20511 23 21 42.34 +00 52 01.9          23.7   EE036705
     K06QI0P  C2007 11 11.19820 23 21 35.92 +00 50 44.2          22.5   EE036705
     K06QI0P  C2007 11 11.20152 23 21 35.93 +00 50 44.0          23.8   EE036705
     K06QI0P  C2007 11 12.20034 23 21 33.01 +00 50 07.0          22.5   EE036705
     K06QI0P  C2007 11 12.20366 23 21 33.01 +00 50 06.8          23.6   EE036705

Observer details:
705 Apache Point.  Observer S. Collaboration.  Measurers A. C. Becker,
    A. W. Puckett, J. Kubica.  2.5-m f/5 Ritchey-Chretien + CCD.  The 2006
    observations correct those on MPS 184112.

First and last observations above in comparison with prediction:
Residuals in seconds of arc (or two decimals in degrees), reference and Delta-T
071013 705 0.03+ 0.01+    071112 705 0.03+ 0.01+    MPO111204  +34.0 day

Orbital elements:
2006 QP180
Epoch 2008 May 14.0 TT = JDT 2454600.5                  MPC
M  12.60854              (2000.0)            P               Q
n   0.00413409     Peri.   52.96825     +0.34885226     +0.93433443
a  38.4487757      Node   237.60304     -0.88494625     +0.30278804
e   0.6571575      Incl.    4.95617     -0.30849996     +0.18798557
P 238              H    9.8           G   0.15           U   2
Residuals in seconds of arc
060828 705  0.0   0.1+    061003 705  0.0   0.1-    071020 705  0.0   0.1+
060828 705  0.0   0.2+    061003 705  0.1+  0.0     071020 705  0.2+  0.1-
060911 705  0.0   0.1-    061012 705  0.1+  0.1+    071104 705  0.0   0.0
060911 705  0.1-  0.2-    061012 705  0.0   0.2+    071104 705  0.2+  0.1-
060918 705  0.1+  0.0     061014 705  0.0   0.1+    071107 705  0.1+  0.1-
060918 705  0.0   0.1-    061014 705  0.1-  0.1-    071107 705  0.3-  0.0
060920 705  0.1+  0.0     061020 705  0.2-  0.1+    071109 705  0.0   0.1-
060920 705  0.3+  0.1-    061020 705  0.1-  0.1+    071109 705  0.0   0.1+
060929 705  0.0   0.1+    071013 705  0.1-  0.2+    071111 705  0.1-  0.0
060929 705  0.3-  0.2-    071013 705  0.3-  0.1-    071111 705  0.2+  0.1-
061001 705  0.0   0.0     071015 705  0.1+  0.2+    071112 705  0.0   0.1+
061001 705  0.2+  0.1-    071015 705  0.0   0.1-    071112 705  0.1+  0.0

Ephemeris:
2006 QP180               a,e,i = 38.45, 0.66, 5                  q = 13.182
Date    TT    R. A. (2000) Decl.     Delta      r     Elong.  Phase     V
2008 04 24    23 49.24   +03 20.1   18.085   17.275    35.4     1.9    22.5
2008 05 04    23 51.30   +03 34.7   18.002   17.298    44.5     2.3    22.5
2008 05 14    23 53.12   +03 48.0   17.900   17.320    53.6     2.7    22.5
2008 05 24    23 54.69   +04 00.0   17.782   17.342    62.8     3.0    22.5
2008 06 03    23 55.98   +04 10.3   17.651   17.364    72.0     3.2    22.5
2008 06 13    23 56.95   +04 18.8   17.512   17.387    81.3     3.3    22.5
2008 06 23    23 57.59   +04 25.2   17.369   17.409    90.6     3.3    22.5
2008 07 03    23 57.89   +04 29.4   17.226   17.431   100.0     3.3    22.5
2008 07 13    23 57.86   +04 31.4   17.088   17.453   109.5     3.1    22.5
2008 07 23    23 57.49   +04 31.1   16.959   17.476   119.1     2.9    22.5
2008 08 02    23 56.81   +04 28.5   16.845   17.498   128.8     2.6    22.4
2008 08 12    23 55.85   +04 23.9   16.748   17.521   138.5     2.2    22.4
2008 08 22    23 54.65   +04 17.3   16.674   17.543   148.4     1.7    22.3
2008 09 01    23 53.26   +04 09.0   16.624   17.565   158.3     1.2    22.3
2008 09 11    23 51.74   +03 59.5   16.602   17.588   168.0     0.7    22.2
2008 09 21    23 50.16   +03 49.0   16.609   17.610   175.4     0.3    22.2
2008 10 01    23 48.60   +03 38.0   16.647   17.633   169.8     0.6    22.2
2008 10 11    23 47.12   +03 27.1   16.714   17.655   160.0     1.1    22.3
2008 10 21    23 45.78   +03 16.7   16.810   17.678   149.9     1.6    22.4
2008 10 31    23 44.66   +03 07.3   16.932   17.701   139.7     2.1    22.4
2008 11 10    23 43.81   +02 59.2   17.077   17.723   129.5     2.5    22.5
2008 11 20    23 43.26   +02 52.8   17.241   17.746   119.3     2.8    22.5
2008 11 30    23 43.05   +02 48.4   17.421   17.769   109.1     3.0    22.6
2008 12 10    23 43.18   +02 46.2   17.610   17.791    99.0     3.1    22.6
2008 12 20    23 43.68   +02 46.3   17.804   17.814    89.0     3.2    22.6
2008 12 30    23 44.51   +02 48.7   17.997   17.837    79.1     3.1    22.6
2009 01 09    23 45.68   +02 53.4   18.185   17.859    69.2     3.0    22.7
2009 01 19    23 47.14   +03 00.2   18.363   17.882    59.4     2.7    22.7
2009 01 29    23 48.87   +03 09.0   18.526   17.905    49.7     2.4    22.7
2009 02 08    23 50.83   +03 19.7   18.670   17.928    40.2     2.0    22.7
2009 02 18    23 52.97   +03 31.8   18.793   17.950    30.7     1.6    22.6

Brian G. Marsden             (C) Copyright 2008 MPC           M.P.E.C. 2008-E36

Read MPEC 2008-E35 Read MPEC 2008-E37


Our Web policy. Index to the CBAT/MPC/ICQ pages.


Valid HTML 4.01!